Time,TemperatureF,DewpointF,PressureIn,WindDirection,WindDirectionDegrees,WindSpeedMPH,WindSpeedGustMPH,Humidity,HourlyPrecipIn,Conditions,Clouds,dailyrainin,SoftwareType,DateUTC
2013-03-02 00:02:00,50.0,46.6,30.20,ENE,61,0.0,0.0,88,0.00,,,0.00,WeatherTracker,2013-03-02 08:02:00,
2013-03-02 00:07:00,49.9,46.5,30.20,ENE,61,0.0,0.0,88,0.00,,,0.00,WeatherTracker,2013-03-02 08:07:00,
2013-03-02 00:12:00,49.7,46.6,30.20,ENE,61,0.0,0.0,89,0.00,,,0.00,WeatherTracker,2013-03-02 08:12:00,
2013-03-02 00:17:00,49.6,47.4,30.20,ENE,61,0.0,0.0,92,0.00,,,0.00,WeatherTracker,2013-03-02 08:17:00,
2013-03-02 00:22:00,49.5,46.4,30.20,ENE,61,0.0,0.0,89,0.00,,,0.00,WeatherTracker,2013-03-02 08:22:00,
2013-03-02 00:27:00,49.4,46.3,30.20,ENE,61,0.0,0.0,89,0.00,,,0.00,WeatherTracker,2013-03-02 08:27:00,
2013-03-02 00:32:00,49.4,46.3,30.20,ENE,61,0.0,0.0,89,0.00,,,0.00,WeatherTracker,2013-03-02 08:32:00,
2013-03-02 00:37:00,49.3,46.2,30.20,ENE,61,0.0,0.0,89,0.00,,,0.00,WeatherTracker,2013-03-02 08:37:00,
2013-03-02 00:42:00,49.2,46.1,30.20,ENE,61,0.0,0.0,89,0.00,,,0.00,WeatherTracker,2013-03-02 08:42:00,
2013-03-02 00:47:00,49.2,46.1,30.20,ENE,61,0.0,0.0,89,0.00,,,0.00,WeatherTracker,2013-03-02 08:47:00,
2013-03-02 00:52:00,49.2,46.1,30.20,ENE,61,0.0,0.0,89,0.00,,,0.00,WeatherTracker,2013-03-02 08:52:00,
2013-03-02 00:57:00,49.2,46.1,30.20,ENE,61,0.0,0.0,89,0.00,,,0.00,WeatherTracker,2013-03-02 08:57:00,
2013-03-02 01:02:00,49.1,46.0,30.20,ENE,61,0.0,0.0,89,0.00,,,0.00,WeatherTracker,2013-03-02 09:02:00,
2013-03-02 01:07:00,49.0,45.9,30.20,ENE,61,0.0,0.0,89,0.00,,,0.00,WeatherTracker,2013-03-02 09:07:00,
2013-03-02 01:12:00,49.0,45.9,30.20,ENE,61,0.0,0.0,89,0.00,,,0.00,WeatherTracker,2013-03-02 09:12:00,
2013-03-02 01:17:00,49.0,46.2,30.20,ENE,61,0.0,0.0,90,0.00,,,0.00,WeatherTracker,2013-03-02 09:17:00,
2013-03-02 01:22:00,49.0,46.2,30.20,ENE,61,0.0,0.0,90,0.00,,,0.00,WeatherTracker,2013-03-02 09:22:00,
2013-03-02 01:27:00,49.0,46.2,30.19,ENE,61,0.0,0.0,90,0.00,,,0.00,WeatherTracker,2013-03-02 09:27:00,
2013-03-02 01:32:00,49.0,46.2,30.19,ENE,61,0.0,0.0,90,0.00,,,0.00,WeatherTracker,2013-03-02 09:32:00,
2013-03-02 01:37:00,49.0,46.2,30.19,ENE,61,0.0,0.0,90,0.00,,,0.00,WeatherTracker,2013-03-02 09:37:00,
2013-03-02 01:42:00,49.1,46.3,30.20,ENE,61,0.0,0.0,90,0.00,,,0.00,WeatherTracker,2013-03-02 09:42:00,
2013-03-02 01:47:00,49.1,46.3,30.19,ENE,61,0.0,0.0,90,0.00,,,0.00,WeatherTracker,2013-03-02 09:47:00,
2013-03-02 01:52:00,49.1,46.3,30.19,ENE,61,0.0,0.0,90,0.00,,,0.00,WeatherTracker,2013-03-02 09:52:00,
2013-03-02 01:57:00,49.1,46.3,30.19,ENE,61,0.0,0.0,90,0.00,,,0.00,WeatherTracker,2013-03-02 09:57:00,
2013-03-02 02:03:00,49.1,46.3,30.19,ENE,61,0.0,0.0,90,0.00,,,0.00,WeatherTracker,2013-03-02 10:03:00,
2013-03-02 02:08:00,49.0,46.2,30.19,ENE,61,0.0,0.0,90,0.00,,,0.00,WeatherTracker,2013-03-02 10:08:00,
2013-03-02 02:13:00,49.0,46.2,30.18,ENE,61,0.0,0.0,90,0.00,,,0.00,WeatherTracker,2013-03-02 10:13:00,
2013-03-02 02:18:00,48.9,46.1,30.18,ENE,61,0.0,0.0,90,0.00,,,0.00,WeatherTracker,2013-03-02 10:18:00,
2013-03-02 02:23:00,48.8,46.0,30.18,ENE,61,0.0,0.0,90,0.00,,,0.00,WeatherTracker,2013-03-02 10:23:00,
2013-03-02 02:28:00,48.7,45.9,30.18,ENE,61,0.0,0.0,90,0.00,,,0.00,WeatherTracker,2013-03-02 10:28:00,
2013-03-02 02:33:00,48.6,45.8,30.17,ENE,61,0.0,0.0,90,0.00,,,0.00,WeatherTracker,2013-03-02 10:33:00,
2013-03-02 02:38:00,48.5,45.7,30.17,ENE,61,0.0,0.0,90,0.00,,,0.00,WeatherTracker,2013-03-02 10:38:00,
2013-03-02 02:43:00,48.5,45.7,30.17,ENE,61,0.0,0.0,90,0.00,,,0.00,WeatherTracker,2013-03-02 10:43:00,
2013-03-02 02:48:00,48.3,45.5,30.17,ENE,61,0.0,0.0,90,0.00,,,0.00,WeatherTracker,2013-03-02 10:48:00,
2013-03-02 02:53:00,48.3,45.5,30.17,ENE,61,0.0,0.0,90,0.00,,,0.00,WeatherTracker,2013-03-02 10:53:00,
2013-03-02 02:58:00,48.3,45.5,30.16,ENE,61,0.0,0.0,90,0.00,,,0.00,WeatherTracker,2013-03-02 10:58:00,
2013-03-02 03:03:00,48.3,45.5,30.16,ENE,61,0.0,0.0,90,0.00,,,0.00,WeatherTracker,2013-03-02 11:03:00,
2013-03-02 03:08:00,48.2,45.4,30.16,ENE,61,0.0,0.0,90,0.00,,,0.00,WeatherTracker,2013-03-02 11:08:00,
2013-03-02 03:14:00,48.2,45.4,30.16,ENE,61,0.0,0.0,90,0.00,,,0.00,WeatherTracker,2013-03-02 11:14:00,
2013-03-02 03:19:00,48.2,45.4,30.16,ENE,61,0.0,0.0,90,0.00,,,0.00,WeatherTracker,2013-03-02 11:19:00,
2013-03-02 03:24:00,48.2,45.4,30.16,ENE,61,0.0,0.0,90,0.00,,,0.00,WeatherTracker,2013-03-02 11:24:00,
2013-03-02 03:29:00,48.1,45.6,30.15,ENE,61,0.0,0.0,91,0.00,,,0.00,WeatherTracker,2013-03-02 11:29:00,
2013-03-02 03:34:00,48.1,45.6,30.15,ENE,61,0.0,0.0,91,0.00,,,0.00,WeatherTracker,2013-03-02 11:34:00,
2013-03-02 03:39:00,48.1,45.6,30.15,ENE,61,0.0,0.0,91,0.00,,,0.00,WeatherTracker,2013-03-02 11:39:00,
2013-03-02 03:44:00,48.1,45.6,30.15,ENE,61,0.0,0.0,91,0.00,,,0.00,WeatherTracker,2013-03-02 11:44:00,
2013-03-02 03:49:00,48.0,45.5,30.15,ENE,61,0.0,0.0,91,0.00,,,0.00,WeatherTracker,2013-03-02 11:49:00,
2013-03-02 03:54:00,48.0,45.5,30.15,ENE,61,0.0,0.0,91,0.00,,,0.00,WeatherTracker,2013-03-02 11:54:00,
2013-03-02 03:59:00,47.9,45.4,30.15,ENE,61,0.0,0.0,91,0.00,,,0.00,WeatherTracker,2013-03-02 11:59:00,
2013-03-02 04:04:00,47.9,45.4,30.15,ENE,61,0.0,0.0,91,0.00,,,0.00,WeatherTracker,2013-03-02 12:04:00,
2013-03-02 04:09:00,47.8,45.3,30.15,ENE,61,0.0,0.0,91,0.00,,,0.00,WeatherTracker,2013-03-02 12:09:00,
2013-03-02 04:14:00,47.8,45.3,30.15,ENE,61,0.0,0.0,91,0.00,,,0.00,WeatherTracker,2013-03-02 12:14:00,
2013-03-02 04:19:00,47.8,45.3,30.15,ENE,61,0.0,0.0,91,0.00,,,0.00,WeatherTracker,2013-03-02 12:19:00,
2013-03-02 04:24:00,47.7,45.2,30.15,ENE,61,0.0,0.0,91,0.00,,,0.00,WeatherTracker,2013-03-02 12:24:00,
2013-03-02 04:29:00,47.7,45.2,30.15,ENE,61,0.0,0.0,91,0.00,,,0.00,WeatherTracker,2013-03-02 12:29:00,
2013-03-02 04:34:00,47.7,45.2,30.15,ENE,61,0.0,0.0,91,0.00,,,0.00,WeatherTracker,2013-03-02 12:34:00,
2013-03-02 04:39:00,47.7,45.2,30.15,ENE,61,0.0,0.0,91,0.00,,,0.00,WeatherTracker,2013-03-02 12:39:00,
2013-03-02 04:44:00,47.6,45.1,30.15,ENE,61,0.0,0.0,91,0.00,,,0.00,WeatherTracker,2013-03-02 12:44:00,
2013-03-02 04:49:00,47.6,45.1,30.15,ENE,61,0.0,0.0,91,0.00,,,0.00,WeatherTracker,2013-03-02 12:49:00,
2013-03-02 04:54:00,47.6,45.1,30.15,ENE,61,0.0,0.0,91,0.00,,,0.00,WeatherTracker,2013-03-02 12:54:00,
2013-03-02 04:59:00,47.6,45.4,30.15,ENE,61,0.0,0.0,92,0.00,,,0.00,WeatherTracker,2013-03-02 12:59:00,
2013-03-02 05:04:00,47.6,45.4,30.15,ENE,61,0.0,0.0,92,0.00,,,0.00,WeatherTracker,2013-03-02 13:04:00,
2013-03-02 05:09:00,47.6,45.4,30.14,ENE,61,0.0,0.0,92,0.00,,,0.00,WeatherTracker,2013-03-02 13:09:00,
2013-03-02 05:14:00,47.6,45.4,30.15,ENE,61,0.0,0.0,92,0.00,,,0.00,WeatherTracker,2013-03-02 13:14:00,
2013-03-02 05:19:00,47.6,45.4,30.15,ENE,61,0.0,0.0,92,0.00,,,0.00,WeatherTracker,2013-03-02 13:19:00,
2013-03-02 05:24:00,47.7,45.5,30.15,ENE,61,0.0,0.0,92,0.00,,,0.00,WeatherTracker,2013-03-02 13:24:00,
2013-03-02 05:29:00,47.7,45.5,30.15,ENE,61,0.0,0.0,92,0.00,,,0.00,WeatherTracker,2013-03-02 13:29:00,
2013-03-02 05:34:00,47.6,45.4,30.15,ENE,61,0.0,0.0,92,0.00,,,0.00,WeatherTracker,2013-03-02 13:34:00,
2013-03-02 05:39:00,47.6,45.4,30.15,ENE,61,0.0,0.0,92,0.00,,,0.00,WeatherTracker,2013-03-02 13:39:00,
2013-03-02 05:44:00,47.6,45.4,30.15,ENE,61,0.0,0.0,92,0.00,,,0.00,WeatherTracker,2013-03-02 13:44:00,
2013-03-02 05:49:00,47.5,45.3,30.15,ENE,61,0.0,0.0,92,0.00,,,0.00,WeatherTracker,2013-03-02 13:49:00,
2013-03-02 05:55:00,47.4,44.9,30.15,ENE,61,0.0,0.0,91,0.00,,,0.00,WeatherTracker,2013-03-02 13:55:00,
2013-03-02 06:00:00,47.4,44.9,30.15,ENE,61,0.0,0.0,91,0.00,,,0.00,WeatherTracker,2013-03-02 14:00:00,
2013-03-02 06:05:00,47.4,45.2,30.14,ENE,61,0.0,0.0,92,0.00,,,0.00,WeatherTracker,2013-03-02 14:05:00,
2013-03-02 06:10:00,47.3,45.1,30.15,ENE,61,0.0,0.0,92,0.00,,,0.00,WeatherTracker,2013-03-02 14:10:00,
2013-03-02 06:15:00,47.3,45.1,30.14,ENE,61,0.0,0.0,92,0.00,,,0.00,WeatherTracker,2013-03-02 14:15:00,
2013-03-02 06:20:00,47.3,45.1,30.14,ENE,61,0.0,0.0,92,0.00,,,0.00,WeatherTracker,2013-03-02 14:20:00,
2013-03-02 06:25:00,47.3,45.1,30.15,ENE,61,0.0,0.0,92,0.00,,,0.00,WeatherTracker,2013-03-02 14:25:00,
2013-03-02 06:30:00,47.3,45.1,30.14,ENE,61,0.0,0.0,92,0.00,,,0.00,WeatherTracker,2013-03-02 14:30:00,
2013-03-02 06:35:00,47.2,45.0,30.15,ENE,61,0.0,0.0,92,0.00,,,0.00,WeatherTracker,2013-03-02 14:35:00,
2013-03-02 06:40:00,47.3,45.1,30.14,ENE,61,0.0,0.0,92,0.00,,,0.00,WeatherTracker,2013-03-02 14:40:00,
2013-03-02 06:45:00,47.3,45.1,30.14,ENE,61,0.0,0.0,92,0.00,,,0.00,WeatherTracker,2013-03-02 14:45:00,
2013-03-02 06:50:00,47.2,45.0,30.14,ENE,61,0.0,0.0,92,0.00,,,0.00,WeatherTracker,2013-03-02 14:50:00,
2013-03-02 06:55:00,47.2,45.0,30.15,ENE,61,0.0,0.0,92,0.00,,,0.00,WeatherTracker,2013-03-02 14:55:00,
2013-03-02 07:00:00,47.2,45.0,30.15,ENE,61,0.0,0.0,92,0.00,,,0.00,WeatherTracker,2013-03-02 15:00:00,
2013-03-02 07:05:00,47.3,45.1,30.15,ENE,61,0.0,0.0,92,0.00,,,0.00,WeatherTracker,2013-03-02 15:05:00,
2013-03-02 07:10:00,47.3,45.1,30.15,ENE,61,0.0,0.0,92,0.00,,,0.00,WeatherTracker,2013-03-02 15:10:00,
2013-03-02 07:15:00,47.4,45.2,30.15,ENE,61,0.0,0.0,92,0.00,,,0.00,WeatherTracker,2013-03-02 15:15:00,
2013-03-02 07:20:00,47.5,45.3,30.16,ENE,61,0.0,0.0,92,0.00,,,0.00,WeatherTracker,2013-03-02 15:20:00,
2013-03-02 07:25:00,47.6,45.4,30.16,ENE,61,0.0,0.0,92,0.00,,,0.00,WeatherTracker,2013-03-02 15:25:00,
2013-03-02 07:30:00,47.6,45.4,30.16,ENE,61,0.0,0.0,92,0.00,,,0.00,WeatherTracker,2013-03-02 15:30:00,
2013-03-02 07:35:00,47.7,45.8,30.16,ENE,61,0.0,0.0,93,0.00,,,0.00,WeatherTracker,2013-03-02 15:35:00,
2013-03-02 07:40:00,47.8,45.9,30.16,ENE,61,0.0,0.0,93,0.00,,,0.00,WeatherTracker,2013-03-02 15:40:00,
2013-03-02 07:45:00,48.0,46.1,30.16,ENE,61,0.0,0.0,93,0.00,,,0.00,WeatherTracker,2013-03-02 15:45:00,
2013-03-02 07:50:00,48.2,46.3,30.16,ENE,61,0.0,0.0,93,0.00,,,0.00,WeatherTracker,2013-03-02 15:50:00,
2013-03-02 07:55:00,48.4,46.5,30.16,ENE,61,0.0,0.0,93,0.00,,,0.00,WeatherTracker,2013-03-02 15:55:00,
2013-03-02 08:00:00,48.7,46.8,30.16,ENE,61,0.0,0.0,93,0.00,,,0.00,WeatherTracker,2013-03-02 16:00:00,
2013-03-02 08:05:00,49.1,47.4,30.16,ENE,61,0.0,0.0,94,0.00,,,0.00,WeatherTracker,2013-03-02 16:05:00,
2013-03-02 08:11:00,49.5,47.8,30.16,ENE,61,0.0,0.0,94,0.00,,,0.00,WeatherTracker,2013-03-02 16:11:00,
2013-03-02 08:16:00,49.9,48.2,30.16,ENE,61,0.0,0.0,94,0.00,,,0.00,WeatherTracker,2013-03-02 16:16:00,
2013-03-02 08:21:00,50.3,48.6,30.16,ENE,61,0.0,0.0,94,0.00,,,0.00,WeatherTracker,2013-03-02 16:21:00,
2013-03-02 08:26:00,50.8,48.8,30.16,ENE,61,0.0,0.0,93,0.00,,,0.00,WeatherTracker,2013-03-02 16:26:00,
2013-03-02 08:31:00,51.2,49.2,30.16,ENE,61,0.0,0.0,93,0.00,,,0.00,WeatherTracker,2013-03-02 16:31:00,
2013-03-02 08:36:00,51.6,49.6,30.16,ENE,61,0.0,0.0,93,0.00,,,0.00,WeatherTracker,2013-03-02 16:36:00,
2013-03-02 08:41:00,52.0,49.7,30.16,ENE,61,0.0,0.0,92,0.00,,,0.00,WeatherTracker,2013-03-02 16:41:00,
2013-03-02 08:46:00,52.5,50.2,30.16,ENE,61,0.0,0.0,92,0.00,,,0.00,WeatherTracker,2013-03-02 16:46:00,
2013-03-02 08:51:00,53.0,50.4,30.17,ENE,61,0.0,1.0,91,0.00,,,0.00,WeatherTracker,2013-03-02 16:51:00,
2013-03-02 08:56:00,53.4,50.5,30.16,ENE,61,0.0,1.0,90,0.00,,,0.00,WeatherTracker,2013-03-02 16:56:00,
2013-03-02 09:01:00,53.9,50.7,30.16,ENE,61,0.0,0.0,89,0.00,,,0.00,WeatherTracker,2013-03-02 17:01:00,
2013-03-02 09:06:00,54.2,51.0,30.16,ENE,61,0.0,0.0,89,0.00,,,0.00,WeatherTracker,2013-03-02 17:06:00,
2013-03-02 09:11:00,54.7,51.2,30.16,ENE,61,0.0,0.0,88,0.00,,,0.00,WeatherTracker,2013-03-02 17:11:00,
2013-03-02 09:16:00,55.2,51.4,30.16,ENE,61,0.0,1.0,87,0.00,,,0.00,WeatherTracker,2013-03-02 17:16:00,
2013-03-02 09:21:00,55.7,51.6,30.16,ENE,61,0.0,1.0,86,0.00,,,0.00,WeatherTracker,2013-03-02 17:21:00,
2013-03-02 09:26:00,56.2,51.7,30.16,ENE,61,0.0,2.0,85,0.00,,,0.00,WeatherTracker,2013-03-02 17:26:00,
2013-03-02 09:31:00,56.6,51.8,30.16,ENE,61,0.0,2.0,84,0.00,,,0.00,WeatherTracker,2013-03-02 17:31:00,
2013-03-02 09:36:00,57.0,52.2,30.16,ENE,61,0.0,1.0,84,0.00,,,0.00,WeatherTracker,2013-03-02 17:36:00,
2013-03-02 09:41:00,57.5,52.4,30.16,ENE,61,0.0,1.0,83,0.00,,,0.00,WeatherTracker,2013-03-02 17:41:00,
2013-03-02 09:47:00,58.0,52.5,30.16,ENE,61,0.0,0.0,82,0.00,,,0.00,WeatherTracker,2013-03-02 17:47:00,
2013-03-02 09:52:00,58.6,53.1,30.16,ENE,61,0.0,1.0,82,0.00,,,0.00,WeatherTracker,2013-03-02 17:52:00,
2013-03-02 09:57:00,59.1,52.9,30.15,ENE,61,0.0,1.0,80,0.00,,,0.00,WeatherTracker,2013-03-02 17:57:00,
2013-03-02 10:02:00,59.9,53.0,30.15,ENE,61,0.0,0.0,78,0.00,,,0.00,WeatherTracker,2013-03-02 18:02:00,
2013-03-02 10:07:00,60.4,53.2,30.15,ENE,61,0.0,0.0,77,0.00,,,0.00,WeatherTracker,2013-03-02 18:07:00,
2013-03-02 10:12:00,60.7,52.7,30.15,ENE,61,0.0,1.0,75,0.00,,,0.00,WeatherTracker,2013-03-02 18:12:00,
2013-03-02 10:17:00,61.3,53.3,30.15,ENE,61,0.0,1.0,75,0.00,,,0.00,WeatherTracker,2013-03-02 18:17:00,
2013-03-02 10:22:00,62.0,54.0,30.15,ENE,61,0.0,1.0,75,0.00,,,0.00,WeatherTracker,2013-03-02 18:22:00,
2013-03-02 10:27:00,62.7,53.5,30.15,ENE,61,0.0,1.0,72,0.00,,,0.00,WeatherTracker,2013-03-02 18:27:00,
2013-03-02 10:32:00,63.4,54.2,30.14,ENE,61,0.0,1.0,72,0.00,,,0.00,WeatherTracker,2013-03-02 18:32:00,
2013-03-02 10:37:00,63.8,54.6,30.14,ENE,61,0.0,1.0,72,0.00,,,0.00,WeatherTracker,2013-03-02 18:37:00,
2013-03-02 10:42:00,64.4,54.8,30.14,ENE,64,0.0,1.0,71,0.00,,,0.00,WeatherTracker,2013-03-02 18:42:00,
2013-03-02 10:47:00,64.7,54.3,30.14,ENE,64,0.0,1.0,69,0.00,,,0.00,WeatherTracker,2013-03-02 18:47:00,
2013-03-02 10:52:00,64.5,54.9,30.14,ENE,64,0.0,1.0,71,0.00,,,0.00,WeatherTracker,2013-03-02 18:52:00,
2013-03-02 10:57:00,64.5,54.9,30.14,ENE,64,0.0,1.0,71,0.00,,,0.00,WeatherTracker,2013-03-02 18:57:00,
2013-03-02 11:02:00,64.9,55.3,30.13,ENE,64,0.0,1.0,71,0.00,,,0.00,WeatherTracker,2013-03-02 19:02:00,
2013-03-02 11:08:00,65.3,55.3,30.13,ENE,64,0.0,2.0,70,0.00,,,0.00,WeatherTracker,2013-03-02 19:08:00,
2013-03-02 11:13:00,65.5,54.7,30.13,ENE,64,0.0,2.0,68,0.00,,,0.00,WeatherTracker,2013-03-02 19:13:00,
2013-03-02 11:18:00,65.8,55.3,30.13,ENE,64,0.0,1.0,69,0.00,,,0.00,WeatherTracker,2013-03-02 19:18:00,
2013-03-02 11:23:00,66.1,54.8,30.13,ENE,64,0.0,1.0,67,0.00,,,0.00,WeatherTracker,2013-03-02 19:23:00,
2013-03-02 11:28:00,66.1,54.0,30.13,ENE,64,0.0,1.0,65,0.00,,,0.00,WeatherTracker,2013-03-02 19:28:00,
2013-03-02 11:33:00,66.2,54.1,30.13,ENE,64,1.0,1.0,65,0.00,,,0.00,WeatherTracker,2013-03-02 19:33:00,
2013-03-02 11:38:00,66.5,53.9,30.13,ENE,64,0.0,1.0,64,0.00,,,0.00,WeatherTracker,2013-03-02 19:38:00,
2013-03-02 11:43:00,66.7,53.3,30.13,ENE,64,0.0,1.0,62,0.00,,,0.00,WeatherTracker,2013-03-02 19:43:00,
2013-03-02 11:48:00,66.9,53.4,30.12,ENE,64,0.0,1.0,62,0.00,,,0.00,WeatherTracker,2013-03-02 19:48:00,
2013-03-02 11:53:00,67.1,54.1,30.12,ENE,64,0.0,2.0,63,0.00,,,0.00,WeatherTracker,2013-03-02 19:53:00,
2013-03-02 11:58:00,67.4,53.9,30.12,ENE,61,0.0,2.0,62,0.00,,,0.00,WeatherTracker,2013-03-02 19:58:00,
2013-03-02 12:03:00,67.9,53.9,30.11,ENE,60,0.0,2.0,61,0.00,,,0.00,WeatherTracker,2013-03-02 20:03:00,
2013-03-02 12:08:00,68.2,53.8,30.11,ENE,62,0.0,2.0,60,0.00,,,0.00,WeatherTracker,2013-03-02 20:08:00,
2013-03-02 12:13:00,68.5,53.1,30.11,ENE,61,0.0,2.0,58,0.00,,,0.00,WeatherTracker,2013-03-02 20:13:00,
2013-03-02 12:18:00,68.8,53.9,30.11,ENE,61,0.0,1.0,59,0.00,,,0.00,WeatherTracker,2013-03-02 20:18:00,
2013-03-02 12:23:00,69.2,53.3,30.10,ENE,62,0.0,1.0,57,0.00,,,0.00,WeatherTracker,2013-03-02 20:23:00,
2013-03-02 12:28:00,69.3,53.9,30.10,ENE,66,0.0,1.0,58,0.00,,,0.00,WeatherTracker,2013-03-02 20:28:00,
2013-03-02 12:34:00,69.2,54.3,30.10,ENE,66,0.0,1.0,59,0.00,,,0.00,WeatherTracker,2013-03-02 20:34:00,
2013-03-02 12:39:00,68.9,53.5,30.09,ENE,66,0.0,1.0,58,0.00,,,0.00,WeatherTracker,2013-03-02 20:39:00,
2013-03-02 12:44:00,68.5,53.6,30.09,ENE,65,0.0,1.0,59,0.00,,,0.00,WeatherTracker,2013-03-02 20:44:00,
2013-03-02 12:49:00,68.5,54.5,30.09,ENE,66,0.0,1.0,61,0.00,,,0.00,WeatherTracker,2013-03-02 20:49:00,
2013-03-02 12:54:00,68.4,53.5,30.09,ENE,66,0.0,1.0,59,0.00,,,0.00,WeatherTracker,2013-03-02 20:54:00,
2013-03-02 12:59:00,68.1,53.7,30.09,ENE,66,0.0,1.0,60,0.00,,,0.00,WeatherTracker,2013-03-02 20:59:00,
2013-03-02 13:04:00,68.1,54.1,30.08,ENE,66,0.0,1.0,61,0.00,,,0.00,WeatherTracker,2013-03-02 21:04:00,
2013-03-02 13:09:00,68.1,53.7,30.08,ENE,65,0.0,1.0,60,0.00,,,0.00,WeatherTracker,2013-03-02 21:09:00,
2013-03-02 13:14:00,68.0,53.6,30.08,ENE,66,1.0,1.0,60,0.00,,,0.00,WeatherTracker,2013-03-02 21:14:00,
2013-03-02 13:19:00,67.8,53.4,30.09,ENE,65,0.0,2.0,60,0.00,,,0.00,WeatherTracker,2013-03-02 21:19:00,
2013-03-02 13:24:00,67.7,53.8,30.09,ENE,66,0.0,2.0,61,0.00,,,0.00,WeatherTracker,2013-03-02 21:24:00,
2013-03-02 13:29:00,67.6,53.7,30.08,ENE,66,0.0,1.0,61,0.00,,,0.00,WeatherTracker,2013-03-02 21:29:00,
2013-03-02 13:34:00,67.6,54.1,30.07,ENE,66,0.0,1.0,62,0.00,,,0.00,WeatherTracker,2013-03-02 21:34:00,
2013-03-02 13:39:00,67.6,53.7,30.07,ENE,66,0.0,1.0,61,0.00,,,0.00,WeatherTracker,2013-03-02 21:39:00,
2013-03-02 13:44:00,67.6,54.1,30.07,ENE,66,0.0,1.0,62,0.00,,,0.00,WeatherTracker,2013-03-02 21:44:00,
2013-03-02 13:49:00,67.7,54.2,30.06,ENE,65,0.0,1.0,62,0.00,,,0.00,WeatherTracker,2013-03-02 21:49:00,
2013-03-02 13:54:00,67.9,54.4,30.06,ENE,66,0.0,1.0,62,0.00,,,0.00,WeatherTracker,2013-03-02 21:54:00,
2013-03-02 13:59:00,68.0,54.0,30.06,ENE,66,0.0,1.0,61,0.00,,,0.00,WeatherTracker,2013-03-02 21:59:00,
2013-03-02 14:04:00,68.1,54.6,30.06,ENE,66,0.0,1.0,62,0.00,,,0.00,WeatherTracker,2013-03-02 22:04:00,
2013-03-02 14:09:00,68.1,55.0,30.05,ENE,65,0.0,1.0,63,0.00,,,0.00,WeatherTracker,2013-03-02 22:09:00,
2013-03-02 14:15:00,68.1,54.6,30.05,ENE,66,0.0,1.0,62,0.00,,,0.00,WeatherTracker,2013-03-02 22:15:00,
2013-03-02 14:20:00,68.2,54.2,30.05,ENE,66,0.0,1.0,61,0.00,,,0.00,WeatherTracker,2013-03-02 22:20:00,
2013-03-02 14:25:00,68.3,53.9,30.05,ENE,66,0.0,1.0,60,0.00,,,0.00,WeatherTracker,2013-03-02 22:25:00,
2013-03-02 14:30:00,68.5,54.1,30.05,ENE,66,0.0,1.0,60,0.00,,,0.00,WeatherTracker,2013-03-02 22:30:00,
2013-03-02 14:35:00,68.8,53.9,30.05,ENE,65,1.0,1.0,59,0.00,,,0.00,WeatherTracker,2013-03-02 22:35:00,
2013-03-02 14:40:00,68.8,53.9,30.04,ENE,66,0.0,2.0,59,0.00,,,0.00,WeatherTracker,2013-03-02 22:40:00,
2013-03-02 14:45:00,68.8,54.3,30.05,ENE,66,0.0,2.0,60,0.00,,,0.00,WeatherTracker,2013-03-02 22:45:00,
2013-03-02 14:50:00,68.7,52.8,30.05,ENE,66,0.0,1.0,57,0.00,,,0.00,WeatherTracker,2013-03-02 22:50:00,
2013-03-02 14:55:00,68.6,52.7,30.04,ENE,66,0.0,2.0,57,0.00,,,0.00,WeatherTracker,2013-03-02 22:55:00,
2013-03-02 15:00:00,68.5,53.1,30.04,ENE,65,0.0,2.0,58,0.00,,,0.00,WeatherTracker,2013-03-02 23:00:00,
2013-03-02 15:05:00,68.3,53.4,30.04,ENE,66,0.0,1.0,59,0.00,,,0.00,WeatherTracker,2013-03-02 23:05:00,
2013-03-02 15:10:00,68.1,53.2,30.04,ENE,66,0.0,1.0,59,0.00,,,0.00,WeatherTracker,2013-03-02 23:10:00,
2013-03-02 15:15:00,67.9,53.0,30.04,ENE,65,1.0,2.0,59,0.00,,,0.00,WeatherTracker,2013-03-02 23:15:00,
2013-03-02 15:20:00,67.5,52.2,30.04,ENE,65,0.0,2.0,58,0.00,,,0.00,WeatherTracker,2013-03-02 23:20:00,
2013-03-02 15:25:00,67.1,51.8,30.03,ENE,66,1.0,1.0,58,0.00,,,0.00,WeatherTracker,2013-03-02 23:25:00,
2013-03-02 15:30:00,66.7,51.0,30.04,ENE,66,0.0,2.0,57,0.00,,,0.00,WeatherTracker,2013-03-02 23:30:00,
2013-03-02 15:35:00,66.5,50.8,30.04,ENE,57,2.0,3.0,57,0.00,,,0.00,WeatherTracker,2013-03-02 23:35:00,
2013-03-02 15:41:00,66.2,51.0,30.04,ENE,57,0.0,3.0,58,0.00,,,0.00,WeatherTracker,2013-03-02 23:41:00,
2013-03-02 15:46:00,66.0,51.3,30.03,ENE,57,0.0,2.0,59,0.00,,,0.00,WeatherTracker,2013-03-02 23:46:00,
2013-03-02 15:51:00,65.7,51.0,30.04,ENE,57,0.0,2.0,59,0.00,,,0.00,WeatherTracker,2013-03-02 23:51:00,
2013-03-02 15:56:00,65.4,51.1,30.04,North,11,1.0,2.0,60,0.00,,,0.00,WeatherTracker,2013-03-02 23:56:00,
2013-03-02 16:01:00,65.1,51.8,30.04,North,11,0.0,2.0,62,0.00,,,0.00,WeatherTracker,2013-03-03 00:01:00,
2013-03-02 16:06:00,64.9,52.0,30.04,North,11,0.0,2.0,63,0.00,,,0.00,WeatherTracker,2013-03-03 00:06:00,
2013-03-02 16:11:00,64.7,52.2,30.04,NNE,21,0.0,2.0,64,0.00,,,0.00,WeatherTracker,2013-03-03 00:11:00,
2013-03-02 16:16:00,64.6,52.1,30.03,NNE,21,0.0,2.0,64,0.00,,,0.00,WeatherTracker,2013-03-03 00:16:00,
2013-03-02 16:21:00,64.5,52.0,30.03,NNE,21,0.0,1.0,64,0.00,,,0.00,WeatherTracker,2013-03-03 00:21:00,
2013-03-02 16:26:00,64.3,52.3,30.02,NNE,21,0.0,1.0,65,0.00,,,0.00,WeatherTracker,2013-03-03 00:26:00,
2013-03-02 16:31:00,64.1,52.1,30.02,NNE,25,0.0,1.0,65,0.00,,,0.00,WeatherTracker,2013-03-03 00:31:00,
2013-03-02 16:36:00,63.9,51.5,30.03,NNE,25,0.0,1.0,64,0.00,,,0.00,WeatherTracker,2013-03-03 00:36:00,
2013-03-02 16:41:00,63.7,52.1,30.03,NNE,25,0.0,1.0,66,0.00,,,0.00,WeatherTracker,2013-03-03 00:41:00,
2013-03-02 16:46:00,63.6,52.0,30.02,NNE,25,0.0,1.0,66,0.00,,,0.00,WeatherTracker,2013-03-03 00:46:00,
2013-03-02 16:51:00,63.5,51.9,30.03,NNE,25,0.0,1.0,66,0.00,,,0.00,WeatherTracker,2013-03-03 00:51:00,
2013-03-02 16:56:00,63.4,51.8,30.03,NNE,25,0.0,1.0,66,0.00,,,0.00,WeatherTracker,2013-03-03 00:56:00,
2013-03-02 17:01:00,63.3,51.7,30.03,NNE,25,0.0,1.0,66,0.00,,,0.00,WeatherTracker,2013-03-03 01:01:00,
2013-03-02 17:06:00,63.2,51.6,30.03,NNE,25,0.0,1.0,66,0.00,,,0.00,WeatherTracker,2013-03-03 01:06:00,
2013-03-02 17:11:00,63.1,51.6,30.03,NNE,25,0.0,0.0,66,0.00,,,0.00,WeatherTracker,2013-03-03 01:11:00,
2013-03-02 17:16:00,63.0,51.5,30.03,NNE,25,0.0,0.0,66,0.00,,,0.00,WeatherTracker,2013-03-03 01:16:00,
2013-03-02 17:22:00,63.0,51.5,30.03,NNE,25,0.0,1.0,66,0.00,,,0.00,WeatherTracker,2013-03-03 01:22:00,
2013-03-02 17:27:00,62.9,51.8,30.04,NNE,25,0.0,1.0,67,0.00,,,0.00,WeatherTracker,2013-03-03 01:27:00,
2013-03-02 17:32:00,62.9,51.4,30.04,NNE,25,0.0,0.0,66,0.00,,,0.00,WeatherTracker,2013-03-03 01:32:00,
2013-03-02 17:37:00,62.8,51.3,30.04,NNE,25,0.0,0.0,66,0.00,,,0.00,WeatherTracker,2013-03-03 01:37:00,
2013-03-02 17:42:00,62.7,51.2,30.04,NNE,25,0.0,0.0,66,0.00,,,0.00,WeatherTracker,2013-03-03 01:42:00,
2013-03-02 17:47:00,62.6,51.1,30.04,NNE,25,0.0,0.0,66,0.00,,,0.00,WeatherTracker,2013-03-03 01:47:00,
2013-03-02 17:52:00,62.5,51.8,30.04,NNE,25,0.0,1.0,68,0.00,,,0.00,WeatherTracker,2013-03-03 01:52:00,
2013-03-02 17:57:00,62.4,52.5,30.04,NNE,25,0.0,1.0,70,0.00,,,0.00,WeatherTracker,2013-03-03 01:57:00,
2013-03-02 18:02:00,62.1,52.6,30.04,NNE,25,0.0,1.0,71,0.00,,,0.00,WeatherTracker,2013-03-03 02:02:00,
2013-03-02 18:07:00,61.7,52.2,30.04,NNE,25,0.0,1.0,71,0.00,,,0.00,WeatherTracker,2013-03-03 02:07:00,
2013-03-02 18:12:00,61.4,52.3,30.04,NNE,25,0.0,1.0,72,0.00,,,0.00,WeatherTracker,2013-03-03 02:12:00,
2013-03-02 18:17:00,61.1,52.0,30.05,NNE,25,0.0,1.0,72,0.00,,,0.00,WeatherTracker,2013-03-03 02:17:00,
2013-03-02 18:22:00,60.6,51.5,30.05,NNE,25,0.0,2.0,72,0.00,,,0.00,WeatherTracker,2013-03-03 02:22:00,
2013-03-02 18:27:00,60.2,51.1,30.05,NNE,25,0.0,2.0,72,0.00,,,0.00,WeatherTracker,2013-03-03 02:27:00,
2013-03-02 18:32:00,59.8,51.5,30.05,NNE,25,0.0,2.0,74,0.00,,,0.00,WeatherTracker,2013-03-03 02:32:00,
2013-03-02 18:37:00,59.5,51.9,30.05,NNE,25,0.0,1.0,76,0.00,,,0.00,WeatherTracker,2013-03-03 02:37:00,
2013-03-02 18:42:00,59.1,51.2,30.06,NNE,25,0.0,1.0,75,0.00,,,0.00,WeatherTracker,2013-03-03 02:42:00,
2013-03-02 18:47:00,59.0,51.4,30.06,NNE,25,0.0,1.0,76,0.00,,,0.00,WeatherTracker,2013-03-03 02:47:00,
2013-03-02 18:52:00,58.8,51.2,30.07,NNE,25,0.0,1.0,76,0.00,,,0.00,WeatherTracker,2013-03-03 02:52:00,
2013-03-02 18:58:00,58.3,51.1,30.07,NNE,25,0.0,1.0,77,0.00,,,0.00,WeatherTracker,2013-03-03 02:58:00,
2013-03-02 19:03:00,57.9,51.1,30.07,NNE,25,0.0,1.0,78,0.00,,,0.00,WeatherTracker,2013-03-03 03:03:00,
2013-03-02 19:08:00,57.5,51.0,30.07,NNE,26,0.0,2.0,79,0.00,,,0.00,WeatherTracker,2013-03-03 03:08:00,
2013-03-02 19:13:00,57.3,50.8,30.07,NNE,25,0.0,2.0,79,0.00,,,0.00,WeatherTracker,2013-03-03 03:13:00,
2013-03-02 19:18:00,57.1,50.6,30.07,NNE,26,0.0,0.0,79,0.00,,,0.00,WeatherTracker,2013-03-03 03:18:00,
2013-03-02 19:23:00,56.9,50.8,30.07,NNE,25,0.0,0.0,80,0.00,,,0.00,WeatherTracker,2013-03-03 03:23:00,
2013-03-02 19:28:00,56.7,50.6,30.07,NNE,25,0.0,1.0,80,0.00,,,0.00,WeatherTracker,2013-03-03 03:28:00,
2013-03-02 19:33:00,56.6,50.8,30.07,NNE,26,0.0,1.0,81,0.00,,,0.00,WeatherTracker,2013-03-03 03:33:00,
2013-03-02 19:38:00,56.4,50.3,30.07,NNE,26,0.0,0.0,80,0.00,,,0.00,WeatherTracker,2013-03-03 03:38:00,
2013-03-02 19:43:00,56.3,50.5,30.07,NNE,26,0.0,0.0,81,0.00,,,0.00,WeatherTracker,2013-03-03 03:43:00,
2013-03-02 19:48:00,56.2,50.4,30.07,NNE,25,0.0,0.0,81,0.00,,,0.00,WeatherTracker,2013-03-03 03:48:00,
2013-03-02 19:53:00,56.1,50.3,30.07,NNE,26,0.0,0.0,81,0.00,,,0.00,WeatherTracker,2013-03-03 03:53:00,
2013-03-02 19:58:00,56.0,50.3,30.07,NNE,25,0.0,0.0,81,0.00,,,0.00,WeatherTracker,2013-03-03 03:58:00,
2013-03-02 20:03:00,56.0,50.3,30.07,NNE,26,0.0,0.0,81,0.00,,,0.00,WeatherTracker,2013-03-03 04:03:00,
2013-03-02 20:08:00,56.0,50.3,30.07,NNE,26,0.0,0.0,81,0.00,,,0.00,WeatherTracker,2013-03-03 04:08:00,
2013-03-02 20:13:00,55.9,50.2,30.07,NNE,26,0.0,0.0,81,0.00,,,0.00,WeatherTracker,2013-03-03 04:13:00,
2013-03-02 20:18:00,55.9,50.2,30.06,NNE,26,0.0,0.0,81,0.00,,,0.00,WeatherTracker,2013-03-03 04:18:00,
2013-03-02 20:23:00,55.9,50.2,30.05,NNE,26,0.0,0.0,81,0.00,,,0.00,WeatherTracker,2013-03-03 04:23:00,
2013-03-02 20:28:00,55.8,50.1,30.05,NNE,26,0.0,0.0,81,0.00,,,0.00,WeatherTracker,2013-03-03 04:28:00,
2013-03-02 20:33:00,55.8,50.4,30.06,NNE,26,0.0,0.0,82,0.00,,,0.00,WeatherTracker,2013-03-03 04:33:00,
2013-03-02 20:39:00,55.8,50.4,30.05,NNE,25,0.0,0.0,82,0.00,,,0.00,WeatherTracker,2013-03-03 04:39:00,
2013-03-02 20:44:00,55.8,50.4,30.05,NNE,26,0.0,0.0,82,0.00,,,0.00,WeatherTracker,2013-03-03 04:44:00,
2013-03-02 20:49:00,55.8,50.4,30.05,NNE,26,0.0,0.0,82,0.00,,,0.00,WeatherTracker,2013-03-03 04:49:00,
2013-03-02 20:54:00,55.8,50.4,30.06,NNE,25,0.0,0.0,82,0.00,,,0.00,WeatherTracker,2013-03-03 04:54:00,
2013-03-02 20:59:00,55.8,50.7,30.06,NNE,26,0.0,0.0,83,0.00,,,0.00,WeatherTracker,2013-03-03 04:59:00,
2013-03-02 21:00:00,55.8,50.7,30.06,NNE,26,0.0,0.0,83,0.00,,,0.00,WeatherTracker,2013-03-03 05:00:00,
2013-03-02 21:01:00,55.8,50.7,30.06,NNE,26,0.0,0.0,83,0.00,,,0.00,WeatherTracker,2013-03-03 05:01:00,
2013-03-02 21:06:00,55.8,50.7,30.06,NNE,26,0.0,0.0,83,0.00,,,0.00,WeatherTracker,2013-03-03 05:06:00,
2013-03-02 21:11:00,55.7,50.6,30.06,NNE,26,0.0,0.0,83,0.00,,,0.00,WeatherTracker,2013-03-03 05:11:00,
2013-03-02 21:16:00,55.7,50.6,30.06,NNE,26,0.0,0.0,83,0.00,,,0.00,WeatherTracker,2013-03-03 05:16:00,
2013-03-02 21:21:00,55.6,50.5,30.06,NNE,26,0.0,0.0,83,0.00,,,0.00,WeatherTracker,2013-03-03 05:21:00,
2013-03-02 21:26:00,55.6,50.5,30.06,NNE,25,0.0,0.0,83,0.00,,,0.00,WeatherTracker,2013-03-03 05:26:00,
2013-03-02 21:31:00,55.5,50.4,30.07,NNE,26,0.0,0.0,83,0.00,,,0.00,WeatherTracker,2013-03-03 05:31:00,
2013-03-02 21:36:00,55.5,50.4,30.06,NNE,26,0.0,0.0,83,0.00,,,0.00,WeatherTracker,2013-03-03 05:36:00,
2013-03-02 21:41:00,55.5,50.7,30.07,NNE,25,0.0,0.0,84,0.00,,,0.00,WeatherTracker,2013-03-03 05:41:00,
2013-03-02 21:46:00,55.4,50.6,30.07,NNE,26,0.0,0.0,84,0.00,,,0.00,WeatherTracker,2013-03-03 05:46:00,
2013-03-02 21:52:00,55.4,50.6,30.06,NNE,26,0.0,0.0,84,0.00,,,0.00,WeatherTracker,2013-03-03 05:52:00,
2013-03-02 21:57:00,55.4,50.6,30.06,NNE,25,0.0,0.0,84,0.00,,,0.00,WeatherTracker,2013-03-03 05:57:00,
2013-03-02 22:02:00,55.3,50.5,30.07,NNE,26,0.0,0.0,84,0.00,,,0.00,WeatherTracker,2013-03-03 06:02:00,
2013-03-02 22:07:00,55.3,50.5,30.07,NNE,26,0.0,0.0,84,0.00,,,0.00,WeatherTracker,2013-03-03 06:07:00,
2013-03-02 22:12:00,55.3,50.5,30.07,NNE,26,0.0,0.0,84,0.00,,,0.00,WeatherTracker,2013-03-03 06:12:00,
2013-03-02 22:17:00,55.3,50.5,30.07,NNE,25,0.0,0.0,84,0.00,,,0.00,WeatherTracker,2013-03-03 06:17:00,
2013-03-02 22:22:00,55.3,50.5,30.07,NNE,26,0.0,0.0,84,0.00,,,0.00,WeatherTracker,2013-03-03 06:22:00,
2013-03-02 22:27:00,55.2,50.4,30.07,NNE,26,0.0,0.0,84,0.00,,,0.00,WeatherTracker,2013-03-03 06:27:00,
2013-03-02 22:32:00,55.2,50.4,30.07,NNE,26,0.0,0.0,84,0.00,,,0.00,WeatherTracker,2013-03-03 06:32:00,
2013-03-02 22:37:00,55.1,50.4,30.06,NNE,25,0.0,0.0,84,0.00,,,0.00,WeatherTracker,2013-03-03 06:37:00,
2013-03-02 22:42:00,55.1,50.4,30.06,NNE,25,0.0,0.0,84,0.00,,,0.00,WeatherTracker,2013-03-03 06:42:00,
2013-03-02 22:47:00,55.1,50.4,30.06,NNE,25,0.0,0.0,84,0.00,,,0.00,WeatherTracker,2013-03-03 06:47:00,
2013-03-02 22:52:00,55.1,50.4,30.06,NNE,26,0.0,0.0,84,0.00,,,0.00,WeatherTracker,2013-03-03 06:52:00,
2013-03-02 22:57:00,55.1,50.4,30.06,NNE,26,0.0,0.0,84,0.00,,,0.00,WeatherTracker,2013-03-03 06:57:00,
2013-03-02 23:02:00,55.1,50.4,30.07,NNE,25,0.0,0.0,84,0.00,,,0.00,WeatherTracker,2013-03-03 07:02:00,
2013-03-02 23:07:00,55.0,50.3,30.07,NNE,25,0.0,0.0,84,0.00,,,0.00,WeatherTracker,2013-03-03 07:07:00,
2013-03-02 23:12:00,55.0,50.3,30.06,NNE,25,0.0,0.0,84,0.00,,,0.00,WeatherTracker,2013-03-03 07:12:00,
2013-03-02 23:17:00,55.0,50.6,30.06,NNE,26,0.0,0.0,85,0.00,,,0.00,WeatherTracker,2013-03-03 07:17:00,
2013-03-02 23:22:00,55.0,50.9,30.06,NNE,26,0.0,0.0,86,0.00,,,0.00,WeatherTracker,2013-03-03 07:22:00,
2013-03-02 23:27:00,55.1,51.0,30.07,NNE,25,0.0,0.0,86,0.00,,,0.00,WeatherTracker,2013-03-03 07:27:00,
2013-03-02 23:32:00,55.1,51.0,30.07,NNE,26,0.0,0.0,86,0.00,,,0.00,WeatherTracker,2013-03-03 07:32:00,
2013-03-02 23:37:00,55.1,51.0,30.06,NNE,25,0.0,0.0,86,0.00,,,0.00,WeatherTracker,2013-03-03 07:37:00,
2013-03-02 23:42:00,55.1,51.0,30.07,NNE,26,0.0,0.0,86,0.00,,,0.00,WeatherTracker,2013-03-03 07:42:00,
2013-03-02 23:47:00,55.1,51.0,30.07,NNE,26,0.0,0.0,86,0.00,,,0.00,WeatherTracker,2013-03-03 07:47:00,
2013-03-02 23:53:00,55.1,51.0,30.07,NNE,26,0.0,0.0,86,0.00,,,0.00,WeatherTracker,2013-03-03 07:53:00,
2013-03-02 23:58:00,55.0,50.9,30.07,NNE,26,0.0,1.0,86,0.00,,,0.00,WeatherTracker,2013-03-03 07:58:00,